This is the latest recevied weather packets stored in our database for station/object F5IOR. If no packets are shown the sender has not sent any weather packets the latest 10 day(s).
| Time | Temp. | Humidity | Pressure | Rain* | Wind** | Luminosity | Snow |
|---|---|---|---|---|---|---|---|
| 1788248103 | 16.67° C | 81% | 994.7 hPa | 0 mm | - | - | - |
| 1788248043 | 16.67° C | 81% | 994.7 hPa | 0 mm | - | - | - |
| 1788247983 | 16.67° C | 81% | 994.7 hPa | 0 mm | - | - | - |
| 1788203167 | 20° C | 61% | 992.5 hPa | 0 mm | - | - | - |
| 1788201367 | 21.11° C | 56% | 992.3 hPa | 0 mm | - | - | - |
| 1788199575 | 22.78° C | 45% | 992 hPa | 0 mm | - | - | - |
| 1788197767 | 22.78° C | 44% | 992.1 hPa | 0 mm | - | - | - |
| 1788195967 | 23.33° C | 42% | 992.2 hPa | 0 mm | - | - | - |
| 1788194167 | 23.89° C | 41% | 992.2 hPa | 0 mm | - | - | - |
| 1788192367 | 24.44° C | 37% | 992.2 hPa | 0 mm | - | - | - |
| 1788190567 | 24.44° C | 38% | 992.3 hPa | 0 mm | - | - | - |
| 1788188767 | 24.44° C | 39% | 992.3 hPa | 0 mm | - | - | - |
| 1788186967 | 25° C | 40% | 992.2 hPa | 0 mm | - | - | - |
| 1788185167 | 24.44° C | 42% | 992.1 hPa | 0 mm | - | - | - |
| 1788183367 | 24.44° C | 44% | 992.2 hPa | 0 mm | - | - | - |
| 1788181568 | 24.44° C | 42% | 992.5 hPa | 0 mm | - | - | - |
| 1788179767 | 24.44° C | 44% | 992.5 hPa | 0 mm | - | - | - |
| 1788177967 | 23.33° C | 49% | 992.6 hPa | 0 mm | - | - | - |
| 1788176167 | 23.33° C | 51% | 992.6 hPa | 0 mm | - | - | - |
| 1788174367 | 21.67° C | 57% | 992.7 hPa | 0 mm | - | - | - |
| 1788172568 | 21.67° C | 58% | 992.8 hPa | 0 mm | - | - | - |
| 1788170767 | 20.56° C | 62% | 992.8 hPa | 0 mm | - | - | - |
| 1788168967 | 20.56° C | 63% | 992.7 hPa | 0 mm | - | - | - |
| 1788168007 | 20° C | 65% | 992.6 hPa | 0 mm | - | - | - |
| 1788167048 | 20° C | 65% | 992.5 hPa | 0 mm | - | - | - |
* Rain latest hour (hover to see other rain measurements)
** Current wind speed in m/s (hover to see current wind gust speed)